Weather History for Hanford, CA

Change the Weather History Date:

Wednesday, January 1, 2014

  Actual Average Record
Temperature  
Mean Temperature 47 °F 44 °F  
Max Temperature 64 °F 53 °F 64 °F (2014)
Min Temperature 29 °F 35 °F 29 °F (2001)
Degree Days  
Heating Degree Days 18    
Month to date heating degree days 18  
Since 1 July heating degree days 1043  
Cooling Degree Days 0    
Month to date cooling degree days 0  
Year to date cooling degree days 0  
Moisture  
Dew Point 33 °F    
Average Humidity 63    
Maximum Humidity 92    
Minimum Humidity 34    
Precipitation  
Precipitation 0.00 in 0.10 in 1.00 in (2006)
Month to date precipitation 0.00 0.10  
Year to date precipitation 0.00 0.10  
Since 1 July precipitation 0.39 3.44  
Snow  
Snow 0.00 in - - ()
Month to date snowfall 0.0  
Since 1 July snowfall 0.0  
Snow Depth 0.00 in    
Sea Level Pressure  
Sea Level Pressure 30.20 in    
Wind  
Wind Speed 1 mph (ENE)    
Max Wind Speed 6 mph    
Max Gust Speed 19 mph    
Visibility 2 miles    
Events Fog    
T = Trace of Precipitation, MM = Missing Value Source: NWS Daily Summary

Daily Weather History Graph

Daily Weather History Graph

Search for Another Location

Airport:

Trip Planner

Search our weather history database for the weather conditions in past years. The results will help you decide how hot, cold, wet, or windy it might be!

Date:

Astronomy

Jan. 01, 2014 Rise Set
Actual Time 7:10 AM PST 4:54 PM PST
Civil Twilight 6:41 AM PST 5:23 PM PST
Nautical Twilight 6:09 AM PST 5:55 PM PST
Astronomical Twilight 5:38 AM PST 6:26 PM PST
Moon 7:06 AM PST (1/1) 5:43 PM PST (1/1)
Length of Visible Light 10h 41m
Length of Day
9h 44m
New Moon, 0% of the Moon is Illuminated
Jan 1
New Moon
Jan 7
First Quarter
Jan 15
Full
Jan 23
Last Quarter
Jan 30
New

Hourly Weather History & Observations

Time (PST) Temp. Windchill Dew Point Humidity Pressure Visibility Wind Dir Wind Speed Gust Speed Precip Events Conditions
12:46 AM 36.0 °F - 30.9 °F 82% 30.20 in 2.5 mi Calm Calm - N/A   Haze
12:53 AM 36.0 °F - 30.9 °F 82% 30.21 in 2.5 mi Calm Calm - N/A   Haze
1:53 AM 33.1 °F - 28.9 °F 85% 30.22 in 2.5 mi Calm Calm - N/A   Clear
2:30 AM 33.1 °F - 30.0 °F 89% 30.21 in 1.0 mi Calm Calm - N/A   Clear
2:53 AM 35.1 °F - 32.0 °F 89% 30.22 in 2.0 mi Calm Calm - N/A   Clear
3:53 AM 32.0 °F 28.7 °F 28.0 °F 85% 30.22 in 2.5 mi ENE 3.5 mph - N/A   Clear
4:23 AM 32.0 °F - 28.9 °F 88% 30.21 in 1.5 mi Calm Calm - N/A   Clear
4:53 AM 33.1 °F - 30.0 °F 89% 30.22 in 0.8 mi Calm Calm - N/A   Clear
5:05 AM 30.9 °F - 28.9 °F 92% 30.22 in 0.5 mi Calm Calm - N/A Fog Light Freezing Fog
5:13 AM 30.9 °F - 28.0 °F 89% 30.21 in 0.2 mi Calm Calm - N/A Fog Light Freezing Fog
5:53 AM 32.0 °F - 30.0 °F 92% 30.21 in 0.2 mi Calm Calm - N/A Fog Fog
6:31 AM 30.9 °F - 28.9 °F 92% 30.20 in 0.5 mi Calm Calm - N/A Fog Light Freezing Fog
6:35 AM 30.9 °F - 30.0 °F 96% 30.20 in 1.2 mi Calm Calm - N/A   Scattered Clouds
6:53 AM 30.0 °F - 28.9 °F 96% 30.22 in 0.8 mi Calm Calm - N/A   Clear
7:53 AM 30.9 °F - 28.9 °F 92% 30.24 in 0.5 mi Calm Calm - N/A Fog Light Freezing Fog
8:15 AM 34.0 °F - 32.0 °F 92% 30.23 in 1.0 mi Calm Calm - N/A   Clear
8:53 AM 37.0 °F - 32.0 °F 82% 30.25 in 1.8 mi Calm Calm - N/A   Haze
9:09 AM 37.9 °F - 32.0 °F 79% 30.25 in 2.0 mi Calm Calm - N/A   Haze
9:53 AM 44.1 °F 41.5 °F 34.0 °F 68% 30.26 in 2.0 mi ENE 4.6 mph - N/A   Haze
10:53 AM 52.0 °F - 37.0 °F 57% 30.24 in 2.5 mi Variable 3.5 mph - N/A   Haze
11:49 AM 55.4 °F - 37.4 °F 51% 30.20 in 3.0 mi Variable 4.6 mph - N/A   Haze
11:53 AM 55.9 °F - 37.0 °F 49% 30.21 in 3.0 mi East 3.5 mph - N/A   Haze
12:53 PM 59.0 °F - 37.0 °F 44% 30.18 in 3.0 mi Calm Calm - N/A   Haze
1:53 PM 62.1 °F - 36.0 °F 38% 30.16 in 3.0 mi Calm Calm - N/A   Haze
2:53 PM 62.1 °F - 35.1 °F 37% 30.15 in 3.0 mi Calm Calm - N/A   Haze
3:53 PM 63.0 °F - 34.0 °F 34% 30.15 in 3.0 mi Calm Calm - N/A   Haze
4:53 PM 57.0 °F - 34.0 °F 42% 30.15 in 3.0 mi Calm Calm - N/A   Haze
5:53 PM 48.9 °F - 35.1 °F 59% 30.17 in 4.0 mi Calm Calm - N/A   Haze
6:53 PM 48.9 °F - 36.0 °F 61% 30.17 in 3.0 mi SSW 3.5 mph - N/A   Haze
7:53 PM 46.9 °F - 34.0 °F 61% 30.18 in 4.0 mi WSW 3.5 mph - N/A   Haze
8:53 PM 44.1 °F - 34.0 °F 68% 30.19 in 3.0 mi Calm Calm - N/A   Haze
9:32 PM 43.0 °F - 34.0 °F 71% 30.18 in 2.5 mi Calm Calm - N/A   Haze
9:40 PM 42.1 °F 40.2 °F 34.0 °F 73% 30.18 in 3.0 mi ENE 3.5 mph - N/A   Haze
9:53 PM 41.0 °F 39.0 °F 33.1 °F 73% 30.19 in 3.0 mi NE 3.5 mph - N/A   Haze
10:23 PM 39.9 °F 36.7 °F 34.0 °F 79% 30.19 in 2.5 mi NE 4.6 mph - N/A   Haze
10:53 PM 39.0 °F - 34.0 °F 82% 30.21 in 2.5 mi Calm Calm - N/A   Haze
11:53 PM 39.9 °F - 34.0 °F 79% 30.20 in 2.5 mi Calm Calm - N/A   Haze